Weather History for KSPG - July, 2013

Change the Weather History Date:

Friday, July 12, 2013

  Actual Average Record
Temperature  
Mean Temperature 83 °F -  
Max Temperature 88 °F 90 °F 96 °F (1987)
Min Temperature 78 °F 76 °F 70 °F (1953)
Cooling Degree Days 18    
Growing Degree Days 33 (Base 50)    
Moisture  
Dew Point 75 °F    
Average Humidity 79    
Maximum Humidity 90    
Minimum Humidity 65    
Precipitation  
Precipitation 0.30 in - - ()
Sea Level Pressure  
Sea Level Pressure 29.93 in    
Wind  
Wind Speed 5 mph (SSW)    
Max Wind Speed 15 mph    
Max Gust Speed -    
Visibility 8 miles    
Events Rain , Thunderstorm    
Averages and records for this station are not official NWS values.
T = Trace of Precipitation, MM = Missing Value Source: NWS Daily Summary

Daily Weather History Graph

Daily Weather History Graph

Search for Another Location

Airport or City:

Trip Planner

Search our weather history database for the weather conditions in past years. The results will help you decide how hot, cold, wet, or windy it might be!

Date:

Astronomy

Jul. 12, 2013 Rise Set
Actual Time 6:43 AM EDT 8:29 PM EDT
Civil Twilight 6:16 AM EDT 8:55 PM EDT
Nautical Twilight 5:45 AM EDT 9:26 PM EDT
Astronomical Twilight 5:12 AM EDT 9:59 PM EDT
Moon 10:33 AM EDT (7/12) 11:07 PM EDT (7/12)
Length of Visible Light 14h 38m
Length of Day
13h 45m
Waxing Crescent, 17% of the Moon is Illuminated
Jul 12
Waxing Crescent
Jul 15
First Quarter
Jul 22
Full
Jul 29
Last Quarter
Aug 6
New

Hourly Weather History & Observations

Time (EDT) Temp. Heat Index Dew Point Humidity Pressure Visibility Wind Dir Wind Speed Gust Speed Precip Events Conditions
12:53 AM 82.0 °F 89.4 °F 75.9 °F 82% 29.94 in 10.0 mi SW 4.6 mph - N/A   Clear
1:53 AM 82.0 °F 89.4 °F 75.9 °F 82% 29.93 in 10.0 mi SW 5.8 mph - N/A   Clear
2:53 AM 82.0 °F 86.3 °F 71.1 °F 69% 29.92 in 10.0 mi SW 5.8 mph - N/A   Mostly Cloudy
3:53 AM 81.0 °F 86.7 °F 75.0 °F 82% 29.90 in 10.0 mi West 3.5 mph - N/A   Clear
4:53 AM 81.0 °F 86.7 °F 75.0 °F 82% 29.90 in 10.0 mi WSW 3.5 mph - N/A   Clear
5:53 AM 81.0 °F 86.7 °F 75.0 °F 82% 29.91 in 10.0 mi Calm Calm - N/A   Clear
6:53 AM 81.0 °F 86.2 °F 73.9 °F 79% 29.91 in 10.0 mi Calm Calm - N/A   Partly Cloudy
7:53 AM 81.0 °F 86.7 °F 75.0 °F 82% 29.92 in 10.0 mi WSW 3.5 mph - N/A   Overcast
8:05 AM 82.0 °F 88.6 °F 75.0 °F 79% 29.93 in 10.0 mi Calm Calm - N/A Thunderstorm Overcast
8:26 AM 82.0 °F 88.6 °F 75.0 °F 79% 29.93 in 10.0 mi NNE 3.5 mph - N/A Thunderstorm Overcast
8:34 AM 82.0 °F 88.6 °F 75.0 °F 79% 29.93 in 10.0 mi Calm Calm - N/A   Overcast
8:53 AM 81.0 °F 86.7 °F 75.0 °F 82% 29.94 in 10.0 mi Variable 4.6 mph - 0.03 in   Overcast
9:16 AM 78.1 °F - 73.9 °F 87% 29.94 in 4.0 mi South 5.8 mph - 0.03 in Rain , Thunderstorm Thunderstorms and Rain
9:20 AM 78.1 °F - 75.0 °F 90% 29.95 in 3.0 mi South 5.8 mph - 0.04 in Rain , Thunderstorm Thunderstorms and Rain
9:37 AM 79.0 °F - 75.0 °F 88% 29.95 in 7.0 mi WSW 6.9 mph - 0.05 in Rain Light Rain
9:42 AM 79.0 °F - 75.9 °F 90% 29.95 in 1.5 mi West 9.2 mph - 0.12 in Rain Rain
9:53 AM 79.0 °F - 75.9 °F 90% 29.95 in 1.5 mi WSW 5.8 mph - 0.18 in Rain Rain
9:55 AM 79.0 °F - 75.9 °F 90% 29.95 in 3.0 mi West 4.6 mph - 0.00 in Rain Light Rain
10:31 AM 81.0 °F 86.2 °F 73.9 °F 79% 29.95 in 3.0 mi Calm Calm - 0.01 in Rain , Thunderstorm Light Rain
10:53 AM 82.0 °F 89.4 °F 75.9 °F 82% 29.95 in 3.0 mi Calm Calm - 0.01 in   Haze
11:53 AM 82.0 °F 89.4 °F 75.9 °F 82% 29.95 in 10.0 mi South 9.2 mph - 0.00 in   Clear
12:34 PM 82.9 °F 90.2 °F 75.0 °F 77% 29.94 in 10.0 mi South 8.1 mph - N/A Thunderstorm Clear
12:53 PM 86.0 °F 96.0 °F 75.9 °F 72% 29.95 in 10.0 mi South 12.7 mph - N/A Thunderstorm Partly Cloudy
1:39 PM 84.9 °F 92.1 °F 73.9 °F 69% 29.94 in 10.0 mi SW 9.2 mph - N/A   Clear
1:53 PM 86.0 °F 93.8 °F 73.9 °F 67% 29.93 in 10.0 mi SW 8.1 mph - N/A   Clear
2:53 PM 86.0 °F 93.0 °F 73.0 °F 65% 29.91 in 10.0 mi West 6.9 mph - N/A   Partly Cloudy
3:53 PM 88.0 °F 98.5 °F 75.9 °F 67% 29.90 in 10.0 mi NE 5.8 mph - N/A   Mostly Cloudy
4:53 PM 86.0 °F 95.1 °F 75.0 °F 70% 29.90 in 10.0 mi ENE 8.1 mph - N/A   Overcast
5:53 PM 86.0 °F 93.8 °F 73.9 °F 67% 29.88 in 10.0 mi Variable 6.9 mph - N/A   Overcast
6:27 PM 84.0 °F 91.9 °F 75.0 °F 74% 29.89 in 10.0 mi NE 10.4 mph - N/A   Overcast
6:53 PM 82.9 °F 90.8 °F 75.9 °F 79% 29.90 in 10.0 mi ENE 15.0 mph - N/A   Overcast
7:53 PM 82.0 °F 87.9 °F 73.9 °F 76% 29.91 in 10.0 mi East 9.2 mph - 0.03 in   Scattered Clouds
8:53 PM 80.1 °F 85.1 °F 75.0 °F 85% 29.92 in 4.0 mi South 8.1 mph - 0.04 in Rain Rain
9:17 PM 80.1 °F 83.8 °F 72.0 °F 76% 29.92 in 10.0 mi Variable 4.6 mph - 0.01 in   Overcast
9:38 PM 80.1 °F 84.5 °F 73.9 °F 81% 29.92 in 10.0 mi SE 10.4 mph - 0.01 in Rain Light Rain
9:53 PM 80.1 °F 85.1 °F 75.0 °F 85% 29.92 in 10.0 mi SSE 9.2 mph - 0.01 in   Mostly Cloudy
10:53 PM 81.0 °F 86.7 °F 75.0 °F 82% 29.94 in 10.0 mi South 10.4 mph - N/A   Partly Cloudy
11:53 PM 80.1 °F 85.4 °F 75.9 °F 87% 29.93 in 10.0 mi SSW 9.2 mph - N/A   Clear